• In Belgium
  • List of Countries
  • For 7 days
  • Water Temperature
  • Satellite Maps
  • Weather Map
  • Weather Widgets
  • user-avatar
    Login

    Hourly Weather Albany

    Today, 13 December, Wednesday

    Time Temperature Precipitation Wind Pressure Humidity
    00:00 +17°C° 0 mm 4 mps 757 mmHg 77%
    01:00 +15°C° 0 mm 4 mps 757 mmHg 78%
    02:00 +15°C° 0 mm 4 mps 756 mmHg 81%
    03:00 +15°C° 0.1 mm 4 mps 756 mmHg 82%
    04:00 +15°C° 0.1 mm 4 mps 757 mmHg 82%
    05:00 +15°C° 0.1 mm 4 mps 757 mmHg 83%
    06:00 +16°C° 0.1 mm 5 mps 757 mmHg 78%
    07:00 +16°C° 0.1 mm 5 mps 758 mmHg 74%
    08:00 +17°C° 0 mm 6 mps 758 mmHg 69%
    09:00 +19°C° 0.1 mm 6 mps 758 mmHg 65%
    10:00 +20°C° 0.1 mm 6 mps 758 mmHg 60%
    11:00 +20°C° 0.1 mm 6 mps 758 mmHg 55%
    12:00 +20°C° 0 mm 6 mps 758 mmHg 56%
    13:00 +20°C° 0 mm 5 mps 758 mmHg 57%
    14:00 +20°C° 0 mm 5 mps 758 mmHg 58%
    15:00 +20°C° 0 mm 5 mps 758 mmHg 58%
    16:00 +20°C° 0 mm 5 mps 759 mmHg 59%
    17:00 +20°C° 0 mm 5 mps 759 mmHg 59%
    18:00 +19°C° 0.1 mm 5 mps 759 mmHg 64%
    19:00 +18°C° 0.1 mm 4 mps 759 mmHg 69%
    20:00 +17°C° 0.1 mm 4 mps 759 mmHg 74%
    21:00 +17°C° 0.1 mm 4 mps 759 mmHg 77%
    22:00 +17°C° 0.1 mm 4 mps 759 mmHg 79%
    23:00 +16°C° 0.1 mm 3 mps 760 mmHg 81%

    Tomorrow, 14 December, Thursday

    Time Temperature Precipitation Wind Pressure Humidity
    00:00 +16°C° 0 mm 3 mps 759 mmHg 83%
    01:00 +16°C° 0 mm 3 mps 759 mmHg 85%
    02:00 +14°C° 0 mm 3 mps 759 mmHg 86%
    03:00 +14°C° 0 mm 3 mps 759 mmHg 86%
    04:00 +14°C° 0 mm 3 mps 759 mmHg 86%
    05:00 +14°C° 0 mm 3 mps 759 mmHg 87%
    06:00 +16°C° 0 mm 2 mps 759 mmHg 79%
    07:00 +18°C° 0 mm 2 mps 759 mmHg 71%
    08:00 +19°C° 0 mm 2 mps 759 mmHg 63%
    09:00 +20°C° 0 mm 2 mps 759 mmHg 58%
    10:00 +23°C° 0 mm 2 mps 759 mmHg 53%
    11:00 +24°C° 0 mm 2 mps 759 mmHg 47%
    12:00 +25°C° 0 mm 3 mps 758 mmHg 47%
    13:00 +25°C° 0 mm 3 mps 758 mmHg 46%
    14:00 +25°C° 0 mm 4 mps 758 mmHg 46%
    15:00 +23°C° 0 mm 4 mps 757 mmHg 50%
    16:00 +22°C° 0 mm 5 mps 757 mmHg 55%
    17:00 +21°C° 0 mm 5 mps 757 mmHg 59%
    18:00 +20°C° 0 mm 5 mps 757 mmHg 65%
    19:00 +19°C° 0 mm 4 mps 757 mmHg 70%
    20:00 +17°C° 0 mm 3 mps 757 mmHg 75%
    21:00 +17°C° 0 mm 3 mps 757 mmHg 78%
    22:00 +17°C° 0 mm 3 mps 758 mmHg 80%
    23:00 +16°C° 0 mm 2 mps 758 mmHg 83%

    Day after tomorrow, 15 December, Friday

    Time Temperature Precipitation Wind Pressure Humidity
    00:00 +16°C° 0 mm 2 mps 757 mmHg 84%
    01:00 +16°C° 0 mm 2 mps 757 mmHg 85%
    02:00 +15°C° 0 mm 2 mps 756 mmHg 87%
    03:00 +15°C° 0 mm 2 mps 756 mmHg 88%
    04:00 +15°C° 0 mm 2 mps 756 mmHg 89%
    05:00 +15°C° 0 mm 2 mps 756 mmHg 91%
    06:00 +16°C° 0 mm 2 mps 756 mmHg 82%
    07:00 +18°C° 0 mm 2 mps 756 mmHg 74%
    08:00 +20°C° 0 mm 2 mps 756 mmHg 65%
    09:00 +21°C° 0 mm 2 mps 756 mmHg 59%
    10:00 +24°C° 0 mm 2 mps 756 mmHg 53%
    11:00 +25°C° 0 mm 3 mps 756 mmHg 47%
    12:00 +26°C° 0 mm 3 mps 755 mmHg 47%
    13:00 +26°C° 0 mm 4 mps 755 mmHg 47%
    14:00 +26°C° 0 mm 4 mps 754 mmHg 46%
    15:00 +25°C° 0 mm 4 mps 754 mmHg 51%
    16:00 +23°C° 0 mm 5 mps 754 mmHg 56%
    17:00 +22°C° 0 mm 5 mps 753 mmHg 60%
    18:00 +21°C° 0 mm 4 mps 754 mmHg 67%
    19:00 +19°C° 0 mm 4 mps 754 mmHg 73%
    20:00 +18°C° 0 mm 3 mps 754 mmHg 79%
    21:00 +18°C° 0 mm 3 mps 754 mmHg 82%
    22:00 +17°C° 0 mm 2 mps 754 mmHg 85%
    23:00 +17°C° 0 mm 2 mps 755 mmHg 88%

    16 December, Saturday

    Time Temperature Precipitation Wind Pressure Humidity
    00:00 +17°C° 0 mm 2 mps 754 mmHg 88%
    01:00 +18°C° 0 mm 1 mps 754 mmHg 88%
    02:00 +18°C° 0 mm 1 mps 754 mmHg 89%
    03:00 +16°C° 0 mm 1 mps 753 mmHg 90%
    04:00 +16°C° 0 mm 1 mps 753 mmHg 91%
    05:00 +16°C° 0 mm 1 mps 753 mmHg 92%
    06:00 +19°C° 0 mm 1 mps 753 mmHg 81%
    07:00 +21°C° 0 mm 1 mps 753 mmHg 70%
    08:00 +23°C° 0 mm 1 mps 753 mmHg 59%
    09:00 +25°C° 0 mm 2 mps 752 mmHg 52%
    10:00 +27°C° 0 mm 2 mps 752 mmHg 44%
    11:00 +29°C° 0 mm 2 mps 752 mmHg 36%
    12:00 +29°C° 0 mm 3 mps 751 mmHg 38%
    13:00 +29°C° 0 mm 4 mps 750 mmHg 40%
    14:00 +28°C° 0 mm 5 mps 749 mmHg 41%
    15:00 +27°C° 0 mm 5 mps 749 mmHg 47%
    16:00 +26°C° 0 mm 5 mps 749 mmHg 52%
    17:00 +24°C° 0 mm 6 mps 748 mmHg 58%
    18:00 +23°C° 0 mm 6 mps 748 mmHg 61%
    19:00 +22°C° 0 mm 6 mps 749 mmHg 65%
    20:00 +21°C° 0 mm 6 mps 749 mmHg 69%
    21:00 +20°C° 0 mm 7 mps 749 mmHg 69%
    22:00 +18°C° 0 mm 7 mps 749 mmHg 68%
    23:00 +17°C° 0 mm 8 mps 749 mmHg 68%

    17 December, Sunday

    Time Temperature Precipitation Wind Pressure Humidity
    00:00 +17°C° 0.2 mm 7 mps 748 mmHg 71%
    01:00 +16°C° 0.2 mm 7 mps 748 mmHg 73%
    02:00 +15°C° 0.2 mm 7 mps 747 mmHg 75%
    03:00 +15°C° 0.5 mm 7 mps 747 mmHg 77%
    04:00 +13°C° 0.5 mm 8 mps 747 mmHg 79%
    05:00 +12°C° 0.5 mm 8 mps 747 mmHg 81%
    06:00 +12°C° 0.6 mm 8 mps 747 mmHg 79%
    07:00 +12°C° 0.6 mm 8 mps 747 mmHg 77%
    08:00 +11°C° 0.6 mm 8 mps 748 mmHg 74%
    09:00 +13°C° 0.2 mm 9 mps 748 mmHg 63%
    10:00 +14°C° 0.2 mm 10 mps 747 mmHg 53%
    11:00 +17°C° 0.2 mm 10 mps 747 mmHg 42%
    12:00 +17°C° 0.1 mm 11 mps 747 mmHg 40%
    13:00 +18°C° 0.1 mm 11 mps 746 mmHg 37%
    14:00 +18°C° 0.1 mm 11 mps 746 mmHg 35%
    15:00 +17°C° 0.1 mm 11 mps 746 mmHg 38%
    16:00 +17°C° 0.1 mm 12 mps 745 mmHg 41%
    17:00 +15°C° 0.1 mm 12 mps 745 mmHg 44%
    18:00 +14°C° 1 mm 12 mps 745 mmHg 56%
    19:00 +12°C° 1 mm 12 mps 745 mmHg 67%
    20:00 +10°C° 1 mm 12 mps 745 mmHg 79%
    21:00 +10°C° 1.9 mm 12 mps 745 mmHg 80%
    22:00 +10°C° 1.9 mm 12 mps 744 mmHg 81%
    23:00 +10°C° 1.9 mm 12 mps 744 mmHg 83%

    18 December, Monday

    Time Temperature Precipitation Wind Pressure Humidity
    00:00 +10°C° 1.4 mm 12 mps 744 mmHg 80%
    01:00 +11°C° 1.4 mm 11 mps 744 mmHg 77%
    02:00 +12°C° 1.4 mm 11 mps 744 mmHg 74%
    03:00 +12°C° 0.4 mm 11 mps 744 mmHg 75%
    04:00 +12°C° 0.4 mm 10 mps 744 mmHg 77%
    05:00 +12°C° 0.4 mm 10 mps 744 mmHg 79%
    06:00 +12°C° 1.4 mm 11 mps 745 mmHg 78%
    07:00 +13°C° 1.4 mm 13 mps 745 mmHg 77%
    08:00 +13°C° 1.4 mm 14 mps 746 mmHg 77%
    09:00 +13°C° 0.6 mm 14 mps 746 mmHg 77%
    10:00 +13°C° 0.6 mm 14 mps 746 mmHg 77%
    11:00 +13°C° 0.6 mm 14 mps 747 mmHg 77%
    12:00 +14°C° 0.2 mm 14 mps 747 mmHg 76%
    13:00 +14°C° 0.2 mm 13 mps 748 mmHg 75%
    14:00 +14°C° 0.2 mm 13 mps 748 mmHg 74%
    15:00 +14°C° 0.2 mm 12 mps 749 mmHg 74%
    16:00 +14°C° 0.2 mm 11 mps 749 mmHg 73%
    17:00 +14°C° 0.2 mm 11 mps 750 mmHg 73%
    18:00 +14°C° 0.1 mm 10 mps 751 mmHg 73%
    19:00 +13°C° 0.1 mm 9 mps 751 mmHg 74%
    20:00 +13°C° 0.1 mm 8 mps 752 mmHg 74%
    21:00 +13°C° 0.1 mm 8 mps 752 mmHg 75%
    22:00 +12°C° 0.1 mm 8 mps 752 mmHg 76%
    23:00 +12°C° 0.1 mm 8 mps 753 mmHg 76%
    Show more